Time,TemperatureF,DewpointF,PressureIn,WindDirection,WindDirectionDegrees,WindSpeedMPH,WindSpeedGustMPH,Humidity,HourlyPrecipIn,Conditions,Clouds,dailyrainin,SoftwareType,DateUTC
2013-01-11 00:02:00,24.0,24.0,29.85,North,0,1.0,12.0,100,0.00,,,0.01,,2013-01-11 08:02:00,
2013-01-11 00:11:00,24.0,24.0,29.85,North,0,3.0,13.0,100,0.00,,,0.01,,2013-01-11 08:11:00,
2013-01-11 00:22:00,24.0,24.0,29.85,North,0,3.0,13.0,100,0.00,,,0.01,,2013-01-11 08:22:00,
2013-01-11 00:32:00,24.0,24.0,29.85,North,0,0.0,9.0,100,0.00,,,0.01,,2013-01-11 08:32:00,
2013-01-11 00:42:00,24.0,24.0,29.85,North,0,0.0,9.0,100,0.00,,,0.01,,2013-01-11 08:42:00,
2013-01-11 00:52:00,24.0,24.0,29.85,NNW,338,0.0,0.0,100,0.00,,,0.01,,2013-01-11 08:52:00,
2013-01-11 01:02:00,24.0,24.0,29.85,North,0,0.0,0.0,100,0.00,,,0.01,,2013-01-11 09:02:00,
2013-01-11 01:11:00,24.0,24.0,29.85,North,0,0.0,0.0,100,0.00,,,0.01,,2013-01-11 09:11:00,
2013-01-11 01:22:00,24.0,24.0,29.86,North,0,0.0,0.0,100,0.00,,,0.01,,2013-01-11 09:22:00,
2013-01-11 01:32:00,24.0,24.0,29.86,North,0,0.0,0.0,100,0.00,,,0.01,,2013-01-11 09:32:00,
2013-01-11 01:42:00,24.0,24.0,29.86,North,0,0.0,0.0,100,0.00,,,0.01,,2013-01-11 09:42:00,
2013-01-11 01:52:00,24.0,24.0,29.87,North,0,0.0,0.0,100,0.00,,,0.01,,2013-01-11 09:52:00,
2013-01-11 02:02:00,24.0,24.0,29.87,North,0,0.0,0.0,100,0.00,,,0.01,,2013-01-11 10:02:00,
2013-01-11 02:11:00,24.0,24.0,29.87,North,0,0.0,0.0,100,0.00,,,0.01,,2013-01-11 10:11:00,
2013-01-11 02:22:00,24.0,24.0,29.88,North,0,0.0,0.0,100,0.00,,,0.01,,2013-01-11 10:22:00,
2013-01-11 02:32:00,24.0,24.0,29.89,North,0,0.0,0.0,100,0.00,,,0.01,,2013-01-11 10:32:00,
2013-01-11 02:42:00,24.0,24.0,29.89,North,0,0.0,0.0,100,0.00,,,0.01,,2013-01-11 10:42:00,
2013-01-11 02:52:00,25.0,25.0,29.90,North,0,0.0,0.0,100,0.00,,,0.01,,2013-01-11 10:52:00,
2013-01-11 03:02:00,25.0,25.0,29.90,North,0,0.0,0.0,100,0.00,,,0.01,,2013-01-11 11:02:00,
2013-01-11 03:11:00,25.0,25.0,29.90,North,0,0.0,0.0,100,0.00,,,0.01,,2013-01-11 11:11:00,
2013-01-11 03:22:00,25.0,25.0,29.90,North,0,0.0,0.0,100,0.00,,,0.01,,2013-01-11 11:22:00,
2013-01-11 03:32:00,25.0,25.0,29.91,North,0,0.0,0.0,100,0.00,,,0.01,,2013-01-11 11:32:00,
2013-01-11 03:42:00,25.0,25.0,29.91,North,0,0.0,0.0,100,0.00,,,0.01,,2013-01-11 11:42:00,
2013-01-11 03:52:00,25.0,25.0,29.91,North,0,0.0,0.0,100,0.00,,,0.01,,2013-01-11 11:52:00,
2013-01-11 04:02:00,25.0,25.0,29.91,North,0,0.0,0.0,100,0.00,,,0.01,,2013-01-11 12:02:00,
2013-01-11 04:12:00,25.0,25.0,29.91,North,0,0.0,0.0,100,0.00,,,0.01,,2013-01-11 12:12:00,
2013-01-11 04:22:00,25.0,25.0,29.91,North,0,0.0,0.0,100,0.00,,,0.01,,2013-01-11 12:22:00,
2013-01-11 04:32:00,25.0,25.0,29.92,North,0,8.0,9.0,100,0.00,,,0.01,,2013-01-11 12:32:00,
2013-01-11 04:42:00,25.0,25.0,29.92,North,0,8.0,9.0,100,0.00,,,0.01,,2013-01-11 12:42:00,
2013-01-11 04:52:00,25.0,25.0,29.92,NNE,23,0.0,0.0,100,0.00,,,0.01,,2013-01-11 12:52:00,
2013-01-11 05:02:00,25.0,25.0,29.93,NNE,23,12.0,16.0,100,0.00,,,0.01,,2013-01-11 13:02:00,
2013-01-11 05:12:00,25.0,25.0,29.93,NNE,23,12.0,16.0,100,0.00,,,0.01,,2013-01-11 13:12:00,
2013-01-11 05:22:00,25.0,25.0,29.94,ENE,68,0.0,0.0,100,0.00,,,0.01,,2013-01-11 13:22:00,
2013-01-11 05:32:00,25.0,25.0,29.95,North,0,0.0,0.0,100,0.00,,,0.01,,2013-01-11 13:32:00,
2013-01-11 05:42:00,25.0,25.0,29.95,North,0,0.0,0.0,100,0.00,,,0.01,,2013-01-11 13:42:00,
2013-01-11 05:52:00,24.0,24.0,29.96,North,0,0.0,0.0,100,0.00,,,0.01,,2013-01-11 13:52:00,
2013-01-11 06:02:00,24.0,24.0,29.96,North,0,0.0,0.0,100,0.00,,,0.01,,2013-01-11 14:02:00,
2013-01-11 06:11:00,24.0,24.0,29.98,North,0,0.0,0.0,100,0.00,,,0.01,,2013-01-11 14:11:00,
2013-01-11 06:22:00,24.0,24.0,29.98,North,0,0.0,0.0,100,0.00,,,0.01,,2013-01-11 14:22:00,
2013-01-11 06:33:00,24.0,24.0,29.98,North,0,0.0,0.0,100,0.00,,,0.01,,2013-01-11 14:33:00,
2013-01-11 06:42:00,25.0,25.0,30.00,North,0,0.0,0.0,100,0.00,,,0.01,,2013-01-11 14:42:00,
2013-01-11 06:53:00,25.0,25.0,30.00,North,0,0.0,0.0,100,0.00,,,0.01,,2013-01-11 14:53:00,
2013-01-11 07:03:00,24.0,24.0,30.00,NNE,23,0.0,0.0,100,0.00,,,0.01,,2013-01-11 15:03:00,
2013-01-11 07:12:00,24.0,24.0,30.01,North,0,0.0,0.0,100,0.00,,,0.01,,2013-01-11 15:12:00,
2013-01-11 07:22:00,24.0,24.0,30.01,North,0,0.0,0.0,100,0.00,,,0.01,,2013-01-11 15:22:00,
2013-01-11 07:32:00,24.0,24.0,30.02,NNE,23,0.0,0.0,100,0.00,,,0.01,,2013-01-11 15:32:00,
2013-01-11 07:42:00,24.0,24.0,30.02,NNE,23,0.0,0.0,100,0.00,,,0.01,,2013-01-11 15:42:00,
2013-01-11 07:52:00,23.0,23.0,30.03,North,0,0.0,0.0,100,0.00,,,0.01,,2013-01-11 15:52:00,
2013-01-11 08:02:00,23.0,23.0,30.03,NNE,23,0.0,0.0,100,0.00,,,0.01,,2013-01-11 16:02:00,
2013-01-11 08:11:00,21.0,21.0,30.04,NNE,23,0.0,0.0,100,0.00,,,0.01,,2013-01-11 16:11:00,
2013-01-11 08:22:00,21.0,21.0,30.04,NNE,23,0.0,0.0,100,0.00,,,0.01,,2013-01-11 16:22:00,
2013-01-11 08:32:00,20.0,20.0,30.04,NNE,23,0.0,0.0,100,0.00,,,0.01,,2013-01-11 16:32:00,
2013-01-11 08:42:00,22.0,22.0,30.04,NNE,23,0.0,0.0,100,0.00,,,0.02,,2013-01-11 16:42:00,
2013-01-11 08:52:00,22.0,22.0,30.04,NNE,23,0.0,0.0,100,0.00,,,0.02,,2013-01-11 16:52:00,
2013-01-11 09:03:00,21.0,21.0,30.05,NNE,23,0.0,0.0,100,0.00,,,0.02,,2013-01-11 17:03:00,
2013-01-11 09:11:00,23.0,23.0,30.06,NNE,23,0.0,0.0,100,0.00,,,0.02,,2013-01-11 17:11:00,
2013-01-11 09:22:00,23.0,23.0,30.06,NNE,23,0.0,0.0,100,0.00,,,0.02,,2013-01-11 17:22:00,
2013-01-11 09:33:00,26.0,26.0,30.07,NNE,23,1.0,6.0,100,0.00,,,0.02,,2013-01-11 17:33:00,
2013-01-11 09:42:00,26.0,26.0,30.07,NNE,23,1.0,6.0,100,0.00,,,0.02,,2013-01-11 17:42:00,
2013-01-11 09:52:00,27.0,27.0,30.08,NE,45,7.0,10.0,100,0.00,,,0.02,,2013-01-11 17:52:00,
2013-01-11 10:02:00,29.0,29.0,30.09,North,0,6.0,7.0,100,0.00,,,0.02,,2013-01-11 18:02:00,
2013-01-11 10:22:00,29.0,29.0,30.10,North,0,6.0,8.0,100,0.00,,,0.02,,2013-01-11 18:22:00,
2013-01-11 10:32:00,28.0,28.0,30.10,North,0,7.0,8.0,100,0.01,,,0.03,,2013-01-11 18:32:00,
2013-01-11 10:53:00,28.0,28.0,30.10,NNE,23,7.0,9.0,100,0.01,,,0.04,,2013-01-11 18:53:00,
2013-01-11 11:02:00,28.0,28.0,30.10,NNE,23,7.0,8.0,100,0.01,,,0.04,,2013-01-11 19:02:00,
2013-01-11 11:22:00,28.0,28.0,30.11,NE,45,6.0,9.0,100,0.01,,,0.03,,2013-01-11 19:22:00,
2013-01-11 11:32:00,28.0,28.0,30.11,NE,45,7.0,8.0,100,0.00,,,0.03,,2013-01-11 19:32:00,
2013-01-11 11:52:00,27.0,27.0,30.10,NE,45,6.0,8.0,100,0.01,,,0.04,,2013-01-11 19:52:00,
2013-01-11 12:02:00,26.0,26.0,30.10,ENE,68,6.0,7.0,100,0.01,,,0.04,,2013-01-11 20:02:00,
2013-01-11 12:11:00,27.0,27.0,30.10,NE,45,0.0,0.0,100,0.01,,,0.04,,2013-01-11 20:11:00,
2013-01-11 12:22:00,27.0,27.0,30.10,NE,45,0.0,0.0,100,0.01,,,0.04,,2013-01-11 20:22:00,
2013-01-11 12:32:00,28.0,28.0,30.10,NE,45,7.0,7.0,100,0.01,,,0.04,,2013-01-11 20:32:00,
2013-01-11 12:52:00,27.0,27.0,30.11,ENE,68,8.0,10.0,100,0.00,,,0.04,,2013-01-11 20:52:00,
2013-01-11 13:02:00,26.0,26.0,30.11,ENE,68,3.0,3.0,100,0.01,,,0.05,,2013-01-11 21:02:00,
2013-01-11 13:12:00,27.0,27.0,30.10,East,90,8.0,8.0,100,0.01,,,0.05,,2013-01-11 21:12:00,
2013-01-11 13:22:00,27.0,27.0,30.10,East,90,8.0,8.0,100,0.01,,,0.05,,2013-01-11 21:22:00,
2013-01-11 13:32:00,28.0,28.0,30.11,East,90,7.0,8.0,100,0.01,,,0.05,,2013-01-11 21:32:00,
2013-01-11 13:52:00,28.0,28.0,30.11,East,90,6.0,7.0,100,0.01,,,0.05,,2013-01-11 21:52:00,
2013-01-11 14:02:00,28.0,28.0,30.12,East,90,0.0,3.0,100,0.01,,,0.06,,2013-01-11 22:02:00,
2013-01-11 14:12:00,28.0,28.0,30.12,East,90,0.0,0.0,100,0.01,,,0.06,,2013-01-11 22:12:00,
2013-01-11 14:32:00,28.0,28.0,30.12,East,90,0.0,0.0,100,0.02,,,0.07,,2013-01-11 22:32:00,
2013-01-11 14:52:00,29.0,29.0,30.12,East,90,0.0,0.0,100,0.02,,,0.07,,2013-01-11 22:52:00,
2013-01-11 15:02:00,28.0,28.0,30.13,East,90,0.0,0.0,100,0.01,,,0.07,,2013-01-11 23:02:00,
2013-01-11 15:12:00,28.0,28.0,30.13,East,90,0.0,0.0,100,0.02,,,0.08,,2013-01-11 23:12:00,
2013-01-11 15:22:00,28.0,28.0,30.13,East,90,0.0,0.0,100,0.02,,,0.08,,2013-01-11 23:22:00,
2013-01-11 15:32:00,29.0,29.0,30.14,East,90,0.0,0.0,100,0.01,,,0.08,,2013-01-11 23:32:00,
2013-01-11 15:52:00,29.0,29.0,30.14,East,90,0.0,0.0,100,0.01,,,0.08,,2013-01-11 23:52:00,
2013-01-11 16:02:00,28.0,28.0,30.14,East,90,0.0,0.0,100,0.01,,,0.08,,2013-01-12 00:02:00,
2013-01-11 16:12:00,28.0,28.0,30.14,East,90,0.0,0.0,100,0.00,,,0.08,,2013-01-12 00:12:00,
2013-01-11 16:32:00,27.0,27.0,30.15,East,90,0.0,0.0,100,0.00,,,0.08,,2013-01-12 00:32:00,
2013-01-11 16:52:00,26.0,26.0,30.15,East,90,0.0,0.0,100,0.00,,,0.08,,2013-01-12 00:52:00,
2013-01-11 17:02:00,25.0,25.0,30.15,East,90,0.0,0.0,100,0.00,,,0.08,,2013-01-12 01:02:00,
2013-01-11 17:12:00,23.0,23.0,30.15,East,90,0.0,0.0,100,0.00,,,0.08,,2013-01-12 01:12:00,
2013-01-11 17:32:00,22.0,22.0,30.15,East,90,0.0,0.0,100,0.00,,,0.08,,2013-01-12 01:32:00,
2013-01-11 17:52:00,18.0,18.0,30.16,East,90,0.0,0.0,100,0.00,,,0.08,,2013-01-12 01:52:00,
2013-01-11 18:02:00,20.0,20.0,30.16,East,90,0.0,0.0,100,0.00,,,0.08,,2013-01-12 02:02:00,
2013-01-11 18:11:00,20.0,20.0,30.16,East,90,0.0,0.0,100,0.00,,,0.08,,2013-01-12 02:11:00,
2013-01-11 18:22:00,17.0,17.0,30.16,East,90,0.0,0.0,100,0.00,,,0.08,,2013-01-12 02:22:00,
2013-01-11 18:32:00,16.0,16.0,30.17,East,90,0.0,0.0,100,0.00,,,0.08,,2013-01-12 02:32:00,
2013-01-11 18:42:00,16.0,16.0,30.17,East,90,0.0,0.0,100,0.00,,,0.08,,2013-01-12 02:42:00,
2013-01-11 18:52:00,18.0,18.0,30.17,SW,225,0.0,0.0,100,0.00,,,0.08,,2013-01-12 02:52:00,
2013-01-11 19:02:00,16.0,16.0,30.18,SSW,203,0.0,0.0,100,0.00,,,0.08,,2013-01-12 03:02:00,
2013-01-11 19:11:00,16.0,16.0,30.18,SSW,203,0.0,0.0,100,0.00,,,0.08,,2013-01-12 03:11:00,
2013-01-11 19:22:00,18.0,18.0,30.18,SW,225,0.0,0.0,100,0.00,,,0.08,,2013-01-12 03:22:00,
2013-01-11 19:32:00,19.0,19.0,30.17,SW,225,0.0,0.0,100,0.00,,,0.08,,2013-01-12 03:32:00,
2013-01-11 19:42:00,19.0,19.0,30.17,SW,225,0.0,0.0,100,0.00,,,0.08,,2013-01-12 03:42:00,
2013-01-11 19:52:00,19.0,19.0,30.17,SW,225,0.0,0.0,100,0.00,,,0.08,,2013-01-12 03:52:00,
2013-01-11 20:02:00,18.0,18.0,30.17,SW,225,0.0,0.0,100,0.00,,,0.08,,2013-01-12 04:02:00,
2013-01-11 20:11:00,13.0,13.0,30.17,SW,225,0.0,0.0,100,0.00,,,0.08,,2013-01-12 04:11:00,
2013-01-11 20:22:00,13.0,13.0,30.17,SW,225,0.0,0.0,100,0.00,,,0.08,,2013-01-12 04:22:00,
2013-01-11 20:32:00,15.0,15.0,30.17,SW,225,0.0,0.0,100,0.00,,,0.08,,2013-01-12 04:32:00,
2013-01-11 20:42:00,15.0,15.0,30.17,SW,225,0.0,0.0,100,0.00,,,0.08,,2013-01-12 04:42:00,
2013-01-11 20:52:00,14.0,14.0,30.16,SW,225,0.0,0.0,100,0.00,,,0.08,,2013-01-12 04:52:00,
2013-01-11 21:03:00,13.0,13.0,30.17,SW,225,0.0,0.0,100,0.00,,,0.08,,2013-01-12 05:03:00,
2013-01-11 21:12:00,13.0,13.0,30.17,SW,225,0.0,0.0,100,0.00,,,0.08,,2013-01-12 05:12:00,
2013-01-11 21:22:00,12.0,12.0,30.16,SW,225,0.0,0.0,100,0.00,,,0.08,,2013-01-12 05:22:00,
2013-01-11 21:32:00,12.0,12.0,30.17,SW,225,0.0,0.0,100,0.00,,,0.08,,2013-01-12 05:32:00,
2013-01-11 21:42:00,12.0,12.0,30.17,SW,225,0.0,0.0,100,0.00,,,0.08,,2013-01-12 05:42:00,
2013-01-11 21:52:00,10.0,10.0,30.17,SW,225,0.0,0.0,100,0.00,,,0.08,,2013-01-12 05:52:00,
2013-01-11 22:02:00,11.0,11.0,30.17,SSW,203,6.0,8.0,100,0.00,,,0.08,,2013-01-12 06:02:00,
2013-01-11 22:11:00,11.0,11.0,30.17,SSW,203,6.0,8.0,100,0.00,,,0.08,,2013-01-12 06:11:00,
2013-01-11 22:22:00,11.0,11.0,30.17,SW,225,6.0,7.0,100,0.00,,,0.08,,2013-01-12 06:22:00,
2013-01-11 22:32:00,11.0,11.0,30.17,South,180,6.0,7.0,100,0.00,,,0.08,,2013-01-12 06:32:00,
2013-01-11 22:42:00,11.0,11.0,30.17,South,180,6.0,7.0,100,0.00,,,0.08,,2013-01-12 06:42:00,
2013-01-11 22:52:00,11.0,11.0,30.17,South,180,8.0,9.0,100,0.00,,,0.08,,2013-01-12 06:52:00,
2013-01-11 23:02:00,11.0,11.0,30.17,SSW,203,7.0,9.0,100,0.00,,,0.08,,2013-01-12 07:02:00,
2013-01-11 23:11:00,11.0,11.0,30.17,South,180,0.0,0.0,100,0.00,,,0.08,,2013-01-12 07:11:00,
2013-01-11 23:21:00,11.0,11.0,30.17,South,180,0.0,0.0,100,0.00,,,0.08,,2013-01-12 07:21:00,
2013-01-11 23:32:00,10.0,10.0,30.18,South,180,0.0,0.0,100,0.00,,,0.08,,2013-01-12 07:32:00,
2013-01-11 23:42:00,10.0,10.0,30.18,South,180,0.0,0.0,100,0.00,,,0.08,,2013-01-12 07:42:00,
2013-01-11 23:52:00,11.0,11.0,30.18,SSW,203,5.0,7.0,100,0.00,,,0.08,,2013-01-12 07:52:00,